Tracking 25370 objects as of 25-Jan-2022
HD Live streaming from Space Station
objects crossing your sky now

STARLINK-2394

Track STARLINK-2394 now!
10-day predictions
STARLINK-2394 is classified as:


NORAD ID: 47813
Int'l Code: 2021-018AC
Perigee: 553.3 km
Apogee: 555.3 km
Inclination: 53.1 °
Period: 95.6 minutes
Semi major axis: 6925 km
RCS: Unknown
Launch date: March 11, 2021
Source: United States (US)
Launch site: AIR FORCE EASTERN TEST RANGE (AFETR)
aabbcc
Your satellite tracking list
Your tracking list is empty




NASA's NSSDC Master Catalog

Two Line Element Set (TLE):
1 47813U 21018AC  22024.84788540  .00001264  00000-0  10371-3 0  9997
2 47813  53.0530 147.1190 0001458  79.5730 280.5423 15.06403613 50113
Source of the keplerian elements: AFSPC